Terminal Aerodrome Forecast
Issued by NWS Duluth, MN

Home | Current Version | Previous Version | Text Only | Print | Product List | Glossary On
Versions: 1 2 3 4 5 6 7 8 9 10 11 12 13 14 15 16 17 18 19 20 21 22 23 24 25 26 27 28 29 30 31
000
FTUS43 KDLH 282300
TAFDLH
TAF
KDLH 282332Z 2900/2924 11011KT P6SM SCT004
      TEMPO 2900/2903 2SM BR BKN004
     FM290300 11009KT 5SM BR SCT005 WS020/20035KT
      TEMPO 2903/2906 2SM BR OVC005
     FM290900 16005KT 2SM BR OVC004
     FM291600 27007KT 6SM -SHRA BR OVC014
      TEMPO 2916/2920 3SM -TSRA BR OVC010CB
     FM292100 35010KT P6SM BKN050=

USA.gov is the U.S. government's official web portal to all federal, state and local government web resources and services.